When you browse on this site, cookies collect data to enhance your experience and personalize the content and advertising you see.
Visit our Privacy Policy to learn more. By continuing to use the site, you agree to this use of cookies and data.
  • In Portugal
  • List of Countries
  • For 7 days
  • Water Temperature
  • Weather Map
  • Weather Widgets
  • user-avatar
    Login

    Hourly Weather Kalgoorlie

    Today, 23 August, Friday

    Time Temperature Precipitation Wind Pressure Humidity
    00:00 +15°C° 0 mm 6 mps 730 mmHg 20%
    01:00 +15°C° 0 mm 6 mps 729 mmHg 20%
    02:00 +14°C° 0 mm 6 mps 728 mmHg 20%
    03:00 +14°C° 0 mm 6 mps 729 mmHg 21%
    04:00 +13°C° 0 mm 5 mps 729 mmHg 23%
    05:00 +13°C° 0 mm 4 mps 729 mmHg 25%
    06:00 +13°C° 0 mm 5 mps 729 mmHg 38%
    07:00 +14°C° 0 mm 6 mps 730 mmHg 51%
    08:00 +15°C° 0 mm 8 mps 730 mmHg 63%
    09:00 +14°C° 0 mm 7 mps 730 mmHg 65%
    10:00 +12°C° 0 mm 7 mps 730 mmHg 66%
    11:00 +13°C° 0 mm 6 mps 730 mmHg 68%
    12:00 +14°C° 0 mm 7 mps 730 mmHg 61%
    13:00 +15°C° 0 mm 7 mps 730 mmHg 54%
    14:00 +17°C° 0 mm 8 mps 730 mmHg 47%
    15:00 +16°C° 0 mm 7 mps 730 mmHg 45%
    16:00 +16°C° 0 mm 7 mps 731 mmHg 43%
    17:00 +15°C° 0 mm 6 mps 731 mmHg 41%
    18:00 +14°C° 0 mm 6 mps 732 mmHg 45%
    19:00 +13°C° 0 mm 5 mps 732 mmHg 48%
    20:00 +13°C° 0 mm 5 mps 733 mmHg 51%
    21:00 +12°C° 0 mm 4 mps 734 mmHg 55%
    22:00 +11°C° 0 mm 4 mps 734 mmHg 58%
    23:00 +10°C° 0 mm 4 mps 735 mmHg 62%

    Tomorrow, 24 August, Saturday

    Time Temperature Precipitation Wind Pressure Humidity
    00:00 +8°C° 0 mm 4 mps 734 mmHg 65%
    01:00 +9°C° 0 mm 3 mps 734 mmHg 68%
    02:00 +8°C° 0 mm 3 mps 734 mmHg 71%
    03:00 +7°C° 0 mm 3 mps 735 mmHg 76%
    04:00 +7°C° 0 mm 3 mps 735 mmHg 81%
    05:00 +5°C° 0 mm 3 mps 735 mmHg 86%
    06:00 +6°C° 0 mm 4 mps 735 mmHg 85%
    07:00 +7°C° 0 mm 4 mps 736 mmHg 84%
    08:00 +7°C° 0 mm 5 mps 736 mmHg 83%
    09:00 +9°C° 0 mm 5 mps 736 mmHg 73%
    10:00 +10°C° 0 mm 5 mps 736 mmHg 63%
    11:00 +13°C° 0 mm 5 mps 737 mmHg 54%
    12:00 +14°C° 0 mm 5 mps 736 mmHg 49%
    13:00 +14°C° 0 mm 4 mps 735 mmHg 45%
    14:00 +15°C° 0 mm 4 mps 734 mmHg 40%
    15:00 +15°C° 0 mm 4 mps 735 mmHg 40%
    16:00 +15°C° 0 mm 4 mps 735 mmHg 39%
    17:00 +15°C° 0 mm 4 mps 735 mmHg 38%
    18:00 +14°C° 0 mm 4 mps 736 mmHg 42%
    19:00 +13°C° 0 mm 4 mps 736 mmHg 47%
    20:00 +12°C° 0 mm 4 mps 736 mmHg 51%
    21:00 +11°C° 0 mm 4 mps 736 mmHg 54%
    22:00 +11°C° 0 mm 3 mps 737 mmHg 57%
    23:00 +10°C° 0 mm 3 mps 737 mmHg 60%

    Day after tomorrow, 25 August, Sunday

    Time Temperature Precipitation Wind Pressure Humidity
    00:00 +8°C° 0 mm 4 mps 736 mmHg 65%
    01:00 +8°C° 0 mm 5 mps 736 mmHg 69%
    02:00 +7°C° 0 mm 5 mps 736 mmHg 73%
    03:00 +7°C° 0 mm 5 mps 736 mmHg 77%
    04:00 +6°C° 0 mm 5 mps 736 mmHg 81%
    05:00 +6°C° 0 mm 5 mps 736 mmHg 85%
    06:00 +5°C° 0 mm 6 mps 736 mmHg 82%
    07:00 +7°C° 0 mm 6 mps 736 mmHg 78%
    08:00 +7°C° 0 mm 6 mps 736 mmHg 75%
    09:00 +9°C° 0 mm 6 mps 736 mmHg 67%
    10:00 +11°C° 0 mm 6 mps 736 mmHg 58%
    11:00 +13°C° 0 mm 5 mps 737 mmHg 49%
    12:00 +14°C° 0 mm 5 mps 736 mmHg 45%
    13:00 +15°C° 0 mm 5 mps 735 mmHg 42%
    14:00 +15°C° 0 mm 4 mps 734 mmHg 38%
    15:00 +15°C° 0 mm 4 mps 735 mmHg 38%
    16:00 +15°C° 0 mm 4 mps 735 mmHg 38%
    17:00 +15°C° 0 mm 4 mps 735 mmHg 38%
    18:00 +14°C° 0 mm 5 mps 735 mmHg 40%
    19:00 +13°C° 0 mm 5 mps 735 mmHg 42%
    20:00 +12°C° 0 mm 5 mps 735 mmHg 44%
    21:00 +10°C° 0 mm 5 mps 736 mmHg 45%
    22:00 +10°C° 0 mm 5 mps 736 mmHg 47%
    23:00 +9°C° 0 mm 5 mps 736 mmHg 49%

    26 August, Monday

    Time Temperature Precipitation Wind Pressure Humidity
    00:00 +8°C° 0 mm 5 mps 736 mmHg 50%
    01:00 +8°C° 0 mm 5 mps 736 mmHg 51%
    02:00 +7°C° 0 mm 5 mps 735 mmHg 53%
    03:00 +7°C° 0 mm 5 mps 736 mmHg 58%
    04:00 +6°C° 0 mm 4 mps 736 mmHg 63%
    05:00 +6°C° 0 mm 4 mps 736 mmHg 69%
    06:00 +7°C° 0 mm 4 mps 736 mmHg 66%
    07:00 +7°C° 0 mm 5 mps 737 mmHg 64%
    08:00 +8°C° 0 mm 5 mps 737 mmHg 62%
    09:00 +10°C° 0 mm 5 mps 737 mmHg 54%
    10:00 +13°C° 0 mm 5 mps 737 mmHg 47%
    11:00 +14°C° 0 mm 5 mps 737 mmHg 39%
    12:00 +15°C° 0 mm 5 mps 736 mmHg 37%
    13:00 +16°C° 0 mm 5 mps 735 mmHg 34%
    14:00 +16°C° 0 mm 5 mps 735 mmHg 31%
    15:00 +16°C° 0 mm 5 mps 735 mmHg 32%
    16:00 +16°C° 0 mm 5 mps 735 mmHg 32%
    17:00 +16°C° 0 mm 5 mps 735 mmHg 33%
    18:00 +14°C° 0 mm 4 mps 735 mmHg 36%
    19:00 +13°C° 0 mm 4 mps 736 mmHg 39%
    20:00 +12°C° 0 mm 4 mps 736 mmHg 42%
    21:00 +12°C° 0 mm 4 mps 736 mmHg 43%
    22:00 +11°C° 0 mm 4 mps 736 mmHg 45%
    23:00 +11°C° 0 mm 4 mps 736 mmHg 47%

    27 August, Tuesday

    Time Temperature Precipitation Wind Pressure Humidity
    00:00 +10°C° 0 mm 4 mps 736 mmHg 49%
    01:00 +10°C° 0 mm 4 mps 736 mmHg 50%
    02:00 +8°C° 0 mm 4 mps 736 mmHg 52%
    03:00 +8°C° 0 mm 4 mps 736 mmHg 53%
    04:00 +7°C° 0 mm 4 mps 735 mmHg 54%
    05:00 +7°C° 0 mm 4 mps 735 mmHg 56%
    06:00 +8°C° 0 mm 5 mps 736 mmHg 53%
    07:00 +9°C° 0 mm 6 mps 736 mmHg 49%
    08:00 +10°C° 0 mm 7 mps 736 mmHg 46%
    09:00 +12°C° 0 mm 7 mps 736 mmHg 42%
    10:00 +15°C° 0 mm 7 mps 736 mmHg 37%
    11:00 +17°C° 0 mm 7 mps 736 mmHg 33%
    12:00 +18°C° 0 mm 7 mps 735 mmHg 30%
    13:00 +20°C° 0 mm 6 mps 734 mmHg 27%
    14:00 +21°C° 0 mm 6 mps 733 mmHg 24%
    15:00 +20°C° 0 mm 5 mps 733 mmHg 25%
    16:00 +20°C° 0 mm 4 mps 733 mmHg 26%
    17:00 +20°C° 0 mm 3 mps 733 mmHg 28%
    18:00 +19°C° 0 mm 4 mps 733 mmHg 29%
    19:00 +18°C° 0 mm 4 mps 733 mmHg 30%
    20:00 +17°C° 0 mm 4 mps 734 mmHg 31%
    21:00 +15°C° 0 mm 4 mps 733 mmHg 32%
    22:00 +15°C° 0 mm 4 mps 733 mmHg 34%
    23:00 +14°C° 0 mm 5 mps 733 mmHg 35%

    28 August, Wednesday

    Time Temperature Precipitation Wind Pressure Humidity
    00:00 +14°C° 0 mm 5 mps 733 mmHg 36%
    01:00 +13°C° 0 mm 4 mps 732 mmHg 37%
    02:00 +13°C° 0 mm 4 mps 732 mmHg 38%
    03:00 +12°C° 0 mm 4 mps 732 mmHg 39%
    04:00 +12°C° 0 mm 4 mps 732 mmHg 40%
    05:00 +12°C° 0 mm 4 mps 732 mmHg 40%
    06:00 +13°C° 0 mm 5 mps 732 mmHg 39%
    07:00 +14°C° 0 mm 6 mps 732 mmHg 38%
    08:00 +15°C° 0 mm 6 mps 732 mmHg 37%
    09:00 +18°C° 0 mm 7 mps 732 mmHg 33%
    10:00 +22°C° 0 mm 7 mps 732 mmHg 29%
    11:00 +26°C° 0 mm 8 mps 732 mmHg 25%
    12:00 +27°C° 0 mm 8 mps 731 mmHg 23%
    13:00 +28°C° 0 mm 7 mps 730 mmHg 22%
    14:00 +29°C° 0 mm 7 mps 730 mmHg 20%
    15:00 +28°C° 0 mm 5 mps 729 mmHg 22%
    16:00 +27°C° 0 mm 4 mps 729 mmHg 24%
    17:00 +27°C° 0 mm 2 mps 729 mmHg 25%
    18:00 +25°C° 0 mm 3 mps 729 mmHg 26%
    19:00 +24°C° 0 mm 3 mps 729 mmHg 27%
    20:00 +22°C° 0 mm 4 mps 730 mmHg 28%
    21:00 +21°C° 0 mm 4 mps 730 mmHg 30%
    22:00 +20°C° 0 mm 3 mps 729 mmHg 32%
    23:00 +19°C° 0 mm 3 mps 729 mmHg 35%
    Show more